Time,TemperatureF,DewpointF,PressureIn,WindDirection,WindDirectionDegrees,WindSpeedMPH,WindSpeedGustMPH,Humidity,HourlyPrecipIn,Conditions,Clouds,dailyrainin,SoftwareType,DateUTC
2013-04-28 00:02:00,48.0,45.0,-100.00,ENE,65,1.0,1.0,90,-99.99,,,-99.99,,2013-04-28 05:02:00,
2013-04-28 00:12:00,50.0,47.0,-100.00,ENE,70,1.0,1.0,90,-99.99,,,-99.99,,2013-04-28 05:12:00,
2013-04-28 00:22:00,50.0,47.0,-100.00,ENE,70,1.0,1.0,90,-99.99,,,-99.99,,2013-04-28 05:22:00,
2013-04-28 00:42:00,45.0,42.0,-100.00,ENE,75,1.0,1.0,90,-99.99,,,-99.99,,2013-04-28 05:42:00,
2013-04-28 00:52:00,50.0,46.0,-100.00,ENE,65,1.0,1.0,85,-99.99,,,-99.99,,2013-04-28 05:52:00,
2013-04-28 01:01:00,50.0,46.0,-100.00,ENE,65,1.0,1.0,85,-99.99,,,-99.99,,2013-04-28 06:01:00,
2013-04-28 01:12:00,47.0,45.0,-100.00,ENE,60,1.0,1.0,91,-99.99,,,-99.99,,2013-04-28 06:12:00,
2013-04-28 01:21:00,51.0,48.0,-100.00,ENE,65,1.0,1.0,90,-99.99,,,-99.99,,2013-04-28 06:21:00,
2013-04-28 01:32:00,51.0,48.0,-100.00,ENE,65,1.0,1.0,90,-99.99,,,-99.99,,2013-04-28 06:32:00,
2013-04-28 01:42:00,55.0,51.0,-100.00,ENE,60,1.0,1.0,87,-99.99,,,-99.99,,2013-04-28 06:42:00,
2013-04-28 01:52:00,54.0,51.0,-100.00,NE,45,1.0,1.0,90,-99.99,,,-99.99,,2013-04-28 06:52:00,
2013-04-28 02:01:00,54.0,51.0,-100.00,NE,45,1.0,1.0,90,-99.99,,,-99.99,,2013-04-28 07:01:00,
2013-04-28 02:11:00,49.0,45.0,-100.00,NE,50,1.0,1.0,86,-99.99,,,-99.99,,2013-04-28 07:11:00,
2013-04-28 02:21:00,56.0,54.0,-100.00,NE,40,1.0,1.0,90,-99.99,,,-99.99,,2013-04-28 07:21:00,
2013-04-28 02:32:00,56.0,54.0,-100.00,NE,40,1.0,1.0,90,-99.99,,,-99.99,,2013-04-28 07:32:00,
2013-04-28 02:42:00,52.0,48.0,-100.00,NE,50,1.0,1.0,87,-99.99,,,-99.99,,2013-04-28 07:42:00,
2013-04-28 02:52:00,48.0,45.0,-100.00,NE,40,1.0,1.0,90,-99.99,,,-99.99,,2013-04-28 07:52:00,
2013-04-28 03:02:00,48.0,45.0,-100.00,NE,40,1.0,1.0,90,-99.99,,,-99.99,,2013-04-28 08:02:00,
2013-04-28 03:11:00,47.0,45.0,-100.00,NE,45,1.0,1.0,90,-99.99,,,-99.99,,2013-04-28 08:11:00,
2013-04-28 03:21:00,54.0,53.0,-100.00,ENE,60,1.0,1.0,97,-99.99,,,-99.99,,2013-04-28 08:21:00,
2013-04-28 03:32:00,54.0,53.0,-100.00,ENE,60,1.0,1.0,97,-99.99,,,-99.99,,2013-04-28 08:32:00,
2013-04-28 03:42:00,51.0,47.0,-100.00,NE,55,1.0,1.0,88,-99.99,,,-99.99,,2013-04-28 08:42:00,
2013-04-28 03:52:00,53.0,52.0,-100.00,NE,50,1.0,1.0,96,-99.99,,,-99.99,,2013-04-28 08:52:00,
2013-04-28 04:01:00,53.0,52.0,-100.00,NE,50,1.0,1.0,96,-99.99,,,-99.99,,2013-04-28 09:01:00,
2013-04-28 04:11:00,52.0,49.0,-100.00,NE,45,1.0,1.0,90,-99.99,,,-99.99,,2013-04-28 09:11:00,
2013-04-28 04:21:00,48.0,45.0,-100.00,NE,40,1.0,1.0,90,-99.99,,,-99.99,,2013-04-28 09:21:00,
2013-04-28 04:33:00,48.0,45.0,-100.00,NE,40,1.0,1.0,90,-99.99,,,-99.99,,2013-04-28 09:33:00,
2013-04-28 04:42:00,55.0,52.0,-100.00,NE,55,1.0,1.0,91,-99.99,,,-99.99,,2013-04-28 09:42:00,
2013-04-28 04:53:00,48.0,45.0,-100.00,NE,35,1.0,1.0,89,-99.99,,,-99.99,,2013-04-28 09:53:00,
2013-04-28 05:03:00,48.0,45.0,-100.00,NE,35,1.0,1.0,89,-99.99,,,-99.99,,2013-04-28 10:03:00,
2013-04-28 05:12:00,54.0,52.0,-100.00,NNE,25,1.0,1.0,90,-99.99,,,-99.99,,2013-04-28 10:12:00,
2013-04-28 05:22:00,43.0,38.0,-100.00,NNE,30,1.0,1.0,85,-99.99,,,-99.99,,2013-04-28 10:22:00,
2013-04-28 05:32:00,43.0,38.0,-100.00,NNE,30,1.0,1.0,85,-99.99,,,-99.99,,2013-04-28 10:32:00,
2013-04-28 05:42:00,48.0,45.0,-100.00,NNE,30,1.0,1.0,90,-99.99,,,-99.99,,2013-04-28 10:42:00,
2013-04-28 05:53:00,52.0,50.0,-100.00,NE,35,1.0,1.0,90,-99.99,,,-99.99,,2013-04-28 10:53:00,
2013-04-28 06:02:00,52.0,50.0,-100.00,NE,35,1.0,1.0,90,-99.99,,,-99.99,,2013-04-28 11:02:00,
2013-04-28 06:11:00,50.0,47.0,-100.00,NE,35,1.0,1.0,90,-99.99,,,-99.99,,2013-04-28 11:11:00,
2013-04-28 06:22:00,46.0,44.0,-100.00,NNE,30,1.0,1.0,90,-99.99,,,-99.99,,2013-04-28 11:22:00,
2013-04-28 06:32:00,46.0,44.0,-100.00,NNE,30,1.0,1.0,90,-99.99,,,-99.99,,2013-04-28 11:32:00,
2013-04-28 06:42:00,50.0,47.0,-100.00,NE,35,1.0,1.0,91,-99.99,,,-99.99,,2013-04-28 11:42:00,
2013-04-28 06:52:00,48.0,47.0,-100.00,NNE,25,1.0,1.0,96,-99.99,,,-99.99,,2013-04-28 11:52:00,
2013-04-28 07:02:00,48.0,47.0,-100.00,NNE,25,1.0,1.0,96,-99.99,,,-99.99,,2013-04-28 12:02:00,
2013-04-28 07:12:00,52.0,48.0,-100.00,NNE,20,1.0,1.0,88,-99.99,,,-99.99,,2013-04-28 12:12:00,
2013-04-28 07:21:00,48.0,45.0,-100.00,NNE,25,1.0,1.0,90,-99.99,,,-99.99,,2013-04-28 12:21:00,
2013-04-28 07:32:00,48.0,45.0,-100.00,NNE,25,1.0,1.0,90,-99.99,,,-99.99,,2013-04-28 12:32:00,
2013-04-28 07:42:00,48.0,45.0,-100.00,NNE,30,1.0,1.0,90,-99.99,,,-99.99,,2013-04-28 12:42:00,
2013-04-28 07:52:00,53.0,52.0,-100.00,NE,35,1.0,1.0,96,-99.99,,,-99.99,,2013-04-28 12:52:00,
2013-04-28 08:02:00,53.0,52.0,-100.00,NE,35,1.0,1.0,96,-99.99,,,-99.99,,2013-04-28 13:02:00,
2013-04-28 08:11:00,55.0,52.0,-100.00,NNE,30,1.0,1.0,90,-99.99,,,-99.99,,2013-04-28 13:11:00,
2013-04-28 08:21:00,52.0,48.0,-100.00,NNE,20,1.0,1.0,87,-99.99,,,-99.99,,2013-04-28 13:21:00,
2013-04-28 08:32:00,52.0,48.0,-100.00,NNE,20,1.0,1.0,87,-99.99,,,-99.99,,2013-04-28 13:32:00,
2013-04-28 08:42:00,52.0,49.0,-100.00,NNE,25,1.0,1.0,90,-99.99,,,-99.99,,2013-04-28 13:42:00,
2013-04-28 08:52:00,47.0,45.0,-100.00,NNE,20,1.0,1.0,90,-99.99,,,-99.99,,2013-04-28 13:52:00,
2013-04-28 09:02:00,47.0,45.0,-100.00,NNE,20,1.0,1.0,90,-99.99,,,-99.99,,2013-04-28 14:02:00,
2013-04-28 09:11:00,55.0,53.0,-100.00,North,5,1.0,1.0,94,-99.99,,,-99.99,,2013-04-28 14:11:00,
2013-04-28 09:22:00,53.0,50.0,-100.00,North,10,1.0,1.0,90,-99.99,,,-99.99,,2013-04-28 14:22:00,
2013-04-28 09:32:00,53.0,50.0,-100.00,North,10,1.0,1.0,90,-99.99,,,-99.99,,2013-04-28 14:32:00,
2013-04-28 09:42:00,48.0,45.0,-100.00,NNE,25,1.0,1.0,90,-99.99,,,-99.99,,2013-04-28 14:42:00,
2013-04-28 09:52:00,49.0,47.0,-100.00,North,5,1.0,1.0,90,-99.99,,,-99.99,,2013-04-28 14:52:00,
2013-04-28 10:02:00,49.0,47.0,-100.00,North,5,1.0,1.0,90,-99.99,,,-99.99,,2013-04-28 15:02:00,
2013-04-28 10:12:00,49.0,47.0,-100.00,North,5,1.0,1.0,90,-99.99,,,-99.99,,2013-04-28 15:12:00,
2013-04-28 10:21:00,55.0,52.0,-100.00,North,5,1.0,1.0,90,-99.99,,,-99.99,,2013-04-28 15:21:00,
2013-04-28 10:32:00,55.0,52.0,-100.00,North,5,1.0,1.0,90,-99.99,,,-99.99,,2013-04-28 15:32:00,
2013-04-28 10:42:00,47.0,46.0,-100.00,North,350,1.0,1.0,94,-99.99,,,-99.99,,2013-04-28 15:42:00,
2013-04-28 10:53:00,56.0,52.0,-100.00,NNW,335,1.0,1.0,89,-99.99,,,-99.99,,2013-04-28 15:53:00,
2013-04-28 11:03:00,56.0,52.0,-100.00,NNW,335,1.0,1.0,89,-99.99,,,-99.99,,2013-04-28 16:03:00,
2013-04-28 11:13:00,50.0,48.0,-100.00,NNW,335,1.0,1.0,91,-99.99,,,-99.99,,2013-04-28 16:13:00,
2013-04-28 11:23:00,55.0,52.0,-100.00,NW,315,1.0,1.0,88,-99.99,,,-99.99,,2013-04-28 16:23:00,
2013-04-28 11:33:00,55.0,52.0,-100.00,NW,315,1.0,1.0,88,-99.99,,,-99.99,,2013-04-28 16:33:00,
2013-04-28 11:42:00,56.0,53.0,-100.00,NNW,340,1.0,1.0,91,-99.99,,,-99.99,,2013-04-28 16:42:00,
2013-04-28 11:52:00,53.0,51.0,-100.00,NW,325,1.0,1.0,91,-99.99,,,-99.99,,2013-04-28 16:52:00,
2013-04-28 12:02:00,53.0,51.0,-100.00,NW,325,1.0,1.0,91,-99.99,,,-99.99,,2013-04-28 17:02:00,
2013-04-28 12:12:00,52.0,49.0,-100.00,NNW,330,1.0,1.0,91,-99.99,,,-99.99,,2013-04-28 17:12:00,
2013-04-28 12:22:00,54.0,52.0,-100.00,NNW,330,1.0,1.0,91,-99.99,,,-99.99,,2013-04-28 17:22:00,
2013-04-28 12:32:00,54.0,52.0,-100.00,NNW,330,1.0,1.0,91,-99.99,,,-99.99,,2013-04-28 17:32:00,
2013-04-28 12:42:00,49.0,46.0,-100.00,NNW,345,1.0,1.0,91,-99.99,,,-99.99,,2013-04-28 17:42:00,
2013-04-28 12:52:00,51.0,49.0,-100.00,NNW,340,1.0,1.0,94,-99.99,,,-99.99,,2013-04-28 17:52:00,
2013-04-28 13:02:00,51.0,49.0,-100.00,NNW,340,1.0,1.0,94,-99.99,,,-99.99,,2013-04-28 18:02:00,
2013-04-28 13:12:00,58.0,56.0,-100.00,NNW,345,1.0,1.0,91,-99.99,,,-99.99,,2013-04-28 18:12:00,
2013-04-28 13:22:00,55.0,53.0,-100.00,NNW,340,1.0,1.0,91,-99.99,,,-99.99,,2013-04-28 18:22:00,
2013-04-28 13:32:00,55.0,53.0,-100.00,NNW,340,1.0,1.0,91,-99.99,,,-99.99,,2013-04-28 18:32:00,
2013-04-28 13:42:00,56.0,53.0,-100.00,NNW,330,1.0,1.0,91,-99.99,,,-99.99,,2013-04-28 18:42:00,
2013-04-28 13:52:00,56.0,55.0,-100.00,NNW,345,1.0,1.0,98,-99.99,,,-99.99,,2013-04-28 18:52:00,
2013-04-28 14:02:00,56.0,55.0,-100.00,NNW,345,1.0,1.0,98,-99.99,,,-99.99,,2013-04-28 19:02:00,
2013-04-28 14:11:00,56.0,53.0,-100.00,North,5,1.0,1.0,89,-99.99,,,-99.99,,2013-04-28 19:11:00,
2013-04-28 14:22:00,53.0,49.0,-100.00,NW,320,1.0,1.0,87,-99.99,,,-99.99,,2013-04-28 19:22:00,
2013-04-28 14:32:00,53.0,49.0,-100.00,NW,320,1.0,1.0,87,-99.99,,,-99.99,,2013-04-28 19:32:00,
2013-04-28 14:42:00,53.0,48.0,-100.00,NW,320,1.0,1.0,84,-99.99,,,-99.99,,2013-04-28 19:42:00,
2013-04-28 14:52:00,53.0,46.0,-100.00,NW,325,1.0,1.0,75,-99.99,,,-99.99,,2013-04-28 19:52:00,
2013-04-28 15:02:00,53.0,46.0,-100.00,NW,325,1.0,1.0,75,-99.99,,,-99.99,,2013-04-28 20:02:00,
2013-04-28 15:12:00,54.0,45.0,-100.00,NW,315,1.0,1.0,73,-99.99,,,-99.99,,2013-04-28 20:12:00,
2013-04-28 15:22:00,58.0,49.0,-100.00,NW,320,1.0,1.0,71,-99.99,,,-99.99,,2013-04-28 20:22:00,
2013-04-28 15:32:00,58.0,49.0,-100.00,NW,320,1.0,1.0,71,-99.99,,,-99.99,,2013-04-28 20:32:00,
2013-04-28 15:42:00,61.0,51.0,-100.00,North,350,1.0,1.0,70,-99.99,,,-99.99,,2013-04-28 20:42:00,
2013-04-28 15:52:00,63.0,52.0,-100.00,NW,320,1.0,1.0,68,-99.99,,,-99.99,,2013-04-28 20:52:00,
2013-04-28 16:01:00,63.0,52.0,-100.00,NW,320,1.0,1.0,68,-99.99,,,-99.99,,2013-04-28 21:01:00,
2013-04-28 16:11:00,63.0,53.0,-100.00,NW,315,1.0,1.0,69,-99.99,,,-99.99,,2013-04-28 21:11:00,
2013-04-28 16:22:00,59.0,49.0,-100.00,NW,320,1.0,1.0,68,-99.99,,,-99.99,,2013-04-28 21:22:00,
2013-04-28 16:33:00,59.0,49.0,-100.00,NW,320,1.0,1.0,68,-99.99,,,-99.99,,2013-04-28 21:33:00,
2013-04-28 16:42:00,60.0,49.0,-100.00,North,5,1.0,1.0,68,-99.99,,,-99.99,,2013-04-28 21:42:00,
2013-04-28 16:53:00,62.0,49.0,-100.00,WNW,295,1.0,1.0,63,-99.99,,,-99.99,,2013-04-28 21:53:00,
2013-04-28 17:03:00,62.0,49.0,-100.00,WNW,295,1.0,1.0,63,-99.99,,,-99.99,,2013-04-28 22:03:00,
2013-04-28 17:12:00,61.0,49.0,-100.00,NW,305,1.0,1.0,66,-99.99,,,-99.99,,2013-04-28 22:12:00,
2013-04-28 17:23:00,55.0,45.0,-100.00,WNW,285,1.0,1.0,67,-99.99,,,-99.99,,2013-04-28 22:23:00,
2013-04-28 17:33:00,55.0,45.0,-100.00,WNW,285,1.0,1.0,67,-99.99,,,-99.99,,2013-04-28 22:33:00,
2013-04-28 17:42:00,62.0,52.0,-100.00,West,280,1.0,1.0,71,-99.99,,,-99.99,,2013-04-28 22:42:00,
2013-04-28 17:52:00,60.0,50.0,-100.00,West,275,1.0,1.0,68,-99.99,,,-99.99,,2013-04-28 22:52:00,
2013-04-28 18:02:00,60.0,50.0,-100.00,West,275,1.0,1.0,68,-99.99,,,-99.99,,2013-04-28 23:02:00,
2013-04-28 18:12:00,57.0,46.0,-100.00,WSW,240,1.0,1.0,68,-99.99,,,-99.99,,2013-04-28 23:12:00,
2013-04-28 18:22:00,57.0,47.0,-100.00,West,270,1.0,1.0,68,-99.99,,,-99.99,,2013-04-28 23:22:00,
2013-04-28 18:32:00,57.0,47.0,-100.00,West,270,1.0,1.0,68,-99.99,,,-99.99,,2013-04-28 23:32:00,
2013-04-28 18:42:00,64.0,54.0,-100.00,WSW,255,1.0,1.0,69,-99.99,,,-99.99,,2013-04-28 23:42:00,
2013-04-28 18:52:00,60.0,51.0,-100.00,WSW,245,1.0,1.0,70,-99.99,,,-99.99,,2013-04-28 23:52:00,
2013-04-28 19:01:00,60.0,51.0,-100.00,WSW,245,1.0,1.0,70,-99.99,,,-99.99,,2013-04-29 00:01:00,
2013-04-28 19:11:00,59.0,49.0,-100.00,SSW,205,1.0,1.0,70,-99.99,,,-99.99,,2013-04-29 00:11:00,
2013-04-28 19:22:00,61.0,53.0,-100.00,South,190,1.0,1.0,73,-99.99,,,-99.99,,2013-04-29 00:22:00,
2013-04-28 19:32:00,61.0,53.0,-100.00,South,190,1.0,1.0,73,-99.99,,,-99.99,,2013-04-29 00:32:00,
2013-04-28 19:42:00,61.0,53.0,-100.00,South,190,1.0,1.0,73,-99.99,,,-99.99,,2013-04-29 00:42:00,
2013-04-28 19:52:00,55.0,48.0,-100.00,SSE,160,1.0,1.0,77,-99.99,,,-99.99,,2013-04-29 00:52:00,
2013-04-28 20:01:00,55.0,48.0,-100.00,SSE,160,1.0,1.0,77,-99.99,,,-99.99,,2013-04-29 01:01:00,
2013-04-28 20:12:00,57.0,50.0,-100.00,SSE,165,1.0,1.0,78,-99.99,,,-99.99,,2013-04-29 01:12:00,
2013-04-28 20:21:00,55.0,49.0,-100.00,South,170,1.0,1.0,81,-99.99,,,-99.99,,2013-04-29 01:21:00,
2013-04-28 20:32:00,55.0,49.0,-100.00,South,170,1.0,1.0,81,-99.99,,,-99.99,,2013-04-29 01:32:00,
2013-04-28 20:42:00,58.0,52.0,-100.00,South,185,1.0,1.0,82,-99.99,,,-99.99,,2013-04-29 01:42:00,
2013-04-28 20:52:00,53.0,48.0,-100.00,SSW,195,1.0,1.0,83,-99.99,,,-99.99,,2013-04-29 01:52:00,
2013-04-28 21:02:00,53.0,48.0,-100.00,SSW,195,1.0,1.0,83,-99.99,,,-99.99,,2013-04-29 02:02:00,
2013-04-28 21:11:00,59.0,54.0,-100.00,SSW,200,1.0,1.0,83,-99.99,,,-99.99,,2013-04-29 02:11:00,
2013-04-28 21:22:00,57.0,52.0,-100.00,SSW,210,1.0,1.0,83,-99.99,,,-99.99,,2013-04-29 02:22:00,
2013-04-28 21:32:00,57.0,52.0,-100.00,SSW,210,1.0,1.0,83,-99.99,,,-99.99,,2013-04-29 02:32:00,
2013-04-28 21:42:00,53.0,48.0,-100.00,SW,220,1.0,1.0,83,-99.99,,,-99.99,,2013-04-29 02:42:00,
2013-04-28 21:52:00,53.0,51.0,-100.00,SW,225,1.0,1.0,92,-99.99,,,-99.99,,2013-04-29 02:52:00,
2013-04-28 22:01:00,53.0,51.0,-100.00,SW,225,1.0,1.0,92,-99.99,,,-99.99,,2013-04-29 03:01:00,
2013-04-28 22:12:00,51.0,47.0,-100.00,SW,225,1.0,1.0,85,-99.99,,,-99.99,,2013-04-29 03:12:00,
2013-04-28 22:21:00,55.0,49.0,-100.00,WSW,240,1.0,1.0,80,-99.99,,,-99.99,,2013-04-29 03:21:00,
2013-04-28 22:33:00,55.0,49.0,-100.00,WSW,240,1.0,1.0,80,-99.99,,,-99.99,,2013-04-29 03:33:00,
2013-04-28 22:42:00,55.0,49.0,-100.00,SW,230,1.0,1.0,81,-99.99,,,-99.99,,2013-04-29 03:42:00,
2013-04-28 22:53:00,55.0,50.0,-100.00,WSW,245,1.0,1.0,84,-99.99,,,-99.99,,2013-04-29 03:53:00,
2013-04-28 23:03:00,55.0,50.0,-100.00,WSW,245,1.0,1.0,84,-99.99,,,-99.99,,2013-04-29 04:03:00,
2013-04-28 23:13:00,54.0,49.0,-100.00,WSW,245,1.0,1.0,85,-99.99,,,-99.99,,2013-04-29 04:13:00,
2013-04-28 23:23:00,53.0,49.0,-100.00,West,260,1.0,1.0,86,-99.99,,,-99.99,,2013-04-29 04:23:00,
2013-04-28 23:30:00,52.0,47.0,-100.00,WSW,240,1.0,1.0,84,-99.99,,,-99.99,,2013-04-29 04:30:00,
2013-04-28 23:33:00,53.0,49.0,-100.00,West,260,1.0,1.0,86,-99.99,,,-99.99,,2013-04-29 04:33:00,
2013-04-28 23:43:00,48.0,44.0,-100.00,West,260,1.0,1.0,87,-99.99,,,-99.99,,2013-04-29 04:43:00,
2013-04-28 23:52:00,50.0,46.0,-100.00,WSW,245,1.0,1.0,88,-99.99,,,-99.99,,2013-04-29 04:52:00,